TimeMST,TemperatureF,Dew PointF,Humidity,Sea Level PressureIn,VisibilityMPH,Wind Direction,Wind SpeedMPH,Gust SpeedMPH,PrecipitationIn,Events,Conditions,WindDirDegrees,DateUTC
12:53 AM,12.0,5.0,73,30.30,10.0,North,6.9,-,N/A,,Clear,360,2012-12-09 07:53:00
1:53 AM,8.1,3.0,80,30.33,10.0,Calm,Calm,-,N/A,,Clear,0,2012-12-09 08:53:00
2:53 AM,8.1,3.0,80,30.36,10.0,East,4.6,-,N/A,,Partly Cloudy,100,2012-12-09 09:53:00
3:12 AM,8.6,3.2,79,30.18,10.0,East,4.6,-,N/A,,Mostly Cloudy,100,2012-12-09 10:12:00
3:36 AM,6.8,3.2,85,30.18,10.0,East,6.9,-,N/A,,Partly Cloudy,90,2012-12-09 10:36:00
3:49 AM,8.6,3.2,79,30.19,10.0,ENE,4.6,-,N/A,,Mostly Cloudy,70,2012-12-09 10:49:00
3:53 AM,9.0,3.9,80,30.38,10.0,East,4.6,-,N/A,,Scattered Clouds,80,2012-12-09 10:53:00
4:53 AM,8.1,3.9,83,30.40,10.0,Calm,Calm,-,N/A,,Mostly Cloudy,0,2012-12-09 11:53:00
5:31 AM,6.8,3.2,85,30.22,10.0,Calm,Calm,-,N/A,,Scattered Clouds,0,2012-12-09 12:31:00
5:53 AM,8.1,3.0,80,30.43,10.0,Calm,Calm,-,N/A,,Partly Cloudy,0,2012-12-09 12:53:00
6:53 AM,7.0,3.0,84,30.46,10.0,Calm,Calm,-,N/A,,Clear,0,2012-12-09 13:53:00
7:53 AM,3.0,-0.9,84,30.50,10.0,Calm,Calm,-,N/A,,Clear,0,2012-12-09 14:53:00
8:53 AM,7.0,3.0,84,30.51,10.0,Calm,Calm,-,N/A,,Clear,0,2012-12-09 15:53:00
9:53 AM,12.9,6.1,74,30.51,10.0,Variable,3.5,-,N/A,,Clear,0,2012-12-09 16:53:00
10:53 AM,15.1,6.1,68,30.49,10.0,SSE,4.6,-,N/A,,Clear,150,2012-12-09 17:53:00
11:53 AM,17.1,6.1,62,30.46,10.0,SSW,3.5,-,N/A,,Clear,200,2012-12-09 18:53:00
12:53 PM,18.0,7.0,62,30.43,10.0,Calm,Calm,-,N/A,,Clear,0,2012-12-09 19:53:00
1:53 PM,19.0,7.0,59,30.41,10.0,SSE,3.5,-,N/A,,Clear,150,2012-12-09 20:53:00
2:53 PM,19.9,7.0,57,30.38,10.0,ESE,6.9,-,N/A,,Clear,110,2012-12-09 21:53:00
3:53 PM,19.0,7.0,59,30.35,10.0,SE,8.1,-,N/A,,Clear,130,2012-12-09 22:53:00
4:53 PM,12.9,6.1,74,30.34,10.0,ESE,9.2,-,N/A,,Clear,120,2012-12-09 23:53:00
5:53 PM,12.9,6.1,74,30.30,10.0,ESE,12.7,-,N/A,,Clear,120,2012-12-10 00:53:00
6:53 PM,12.9,6.1,74,30.26,10.0,ESE,12.7,-,N/A,,Clear,120,2012-12-10 01:53:00
7:53 PM,14.0,7.0,74,30.24,10.0,ESE,12.7,-,N/A,,Overcast,120,2012-12-10 02:53:00
8:53 PM,15.1,7.0,70,30.20,10.0,ESE,10.4,-,N/A,,Overcast,110,2012-12-10 03:53:00
9:53 PM,16.0,7.0,68,30.17,10.0,South,3.5,-,N/A,,Overcast,190,2012-12-10 04:53:00
10:53 PM,16.0,10.0,77,30.15,10.0,Calm,Calm,-,N/A,,Overcast,0,2012-12-10 05:53:00
11:53 PM,14.0,9.0,80,30.15,10.0,SW,5.8,-,N/A,,Overcast,220,2012-12-10 06:53:00